Content
SEND FEEDBACK

Daily
Averages
Monthly
Summary
Montenegro

PODGORICA, MONTENEGRO


Home > Europe > Montenegro
Elevation: 174 feet     Latitude: 42 26N     Longitude: 019 17E

WEATHER
 
SELECT A DAY
Number of Records: 245,514;   Date Range: 12/2/96 - 8/28/14
 
SHARE

PRINT THIS DATA

[ ← Previous Day ]
WEATHER ALMANAC - JANUARY 31, 2013
[ Next Day → ]
[ °C ]   °F
Weather ElementAverageHighLow
Temperature42.5 °F60.8 °F (2:30 pm)33.8 °F (3:30 am)
Dewpoint32 °F39.2 °F (1:00 pm)21.2 °F (2:30 pm)
Humidity70.1 %87 % (3:30 am)22 % (2:30 pm)
Barometer30.09 in30.15 in (8:00 pm)30.04 in (4:00 am)
Wind Speed4.4 mph13.8 mph (3:00 pm)
Weather ElementAverage
Visibility6.2 mi
Wind DirectionSSE (156.6 °)

Weather ElementTotal
Precipitation---
Heating Degree Days17.7 (Base 65)
Averaged from 47 records on January 31, 2013
WEATHER CONDITIONS BREAKOUT
WIND DIRECTION BREAKOUT
WEATHER BY HOUR - JANUARY 31, 2013
[ °C ]   °F
Local TimeTemperatureDewpointHumidityBarometerVisibilityWind DirectionWind SpeedGust SpeedPrecipitationEventsConditions
12:30 AM37.4 °F32.0 °F81 %30.09 inNorth (10°)3.5 mphClear
1:00 AM37.4 °F32.0 °F81 %30.09 inNorth (10°)3.5 mphClear
1:30 AM35.6 °F30.2 °F81 %30.06 inNorth (360°)4.6 mphClear
2:00 AM35.6 °F30.2 °F81 %30.06 inNE (40°)3.5 mphClear
2:30 AM35.6 °F30.2 °F81 %30.06 inWest (280°)3.5 mphClear
3:00 AM35.6 °F30.2 °F81 %30.06 inVariable2.3 mphClear
3:30 AM33.8 °F30.2 °F87 %30.06 inNorth (10°)4.6 mphClear
4:00 AM33.8 °F30.2 °F87 %30.04 inNorth (350°)8.1 mphClear
4:30 AM33.8 °F30.2 °F87 %30.04 inNorth (350°)4.6 mphClear
5:00 AM33.8 °F30.2 °F87 %30.04 inWest (280°)4.6 mphClear
5:30 AM33.8 °F30.2 °F87 %30.04 inVariable1.2 mphClear
6:00 AM33.8 °F30.2 °F87 %30.06 in6.2 miNorth (360°)3.5 mphPartly Cloudy
6:30 AM35.6 °F30.2 °F81 %30.06 in6.2 miNE (40°)3.5 mphPartly Cloudy
7:00 AM35.6 °F30.2 °F81 %30.06 in6.2 miNorth (360°)8.1 mph
7:30 AM35.6 °F30.2 °F81 %30.06 in6.2 miNNW (340°)4.6 mphScattered Clouds
8:00 AM37.4 °F32.0 °F81 %30.06 in6.2 miWest (280°)3.5 mphScattered Clouds
8:30 AM37.4 °F32.0 °F81 %30.06 in6.2 miWNW (290°)5.8 mphScattered Clouds
9:00 AM39.2 °F32.0 °F75 %30.06 in6.2 miWNW (290°)5.8 mphMostly Cloudy
9:30 AM41.0 °F33.8 °F76 %30.12 in6.2 miENE (70°)5.8 mphMostly Cloudy
10:00 AM41.0 °F35.6 °F81 %30.12 in6.2 miSSW (210°)2.3 mphMostly Cloudy
10:30 AM41.0 °F35.6 °F81 %30.12 in6.2 miSouth (180°)5.8 mphRainLight Rain
11:00 AM42.8 °F35.6 °F76 %30.09 in6.2 miSE (140°)9.2 mphMostly Cloudy
11:30 AM46.4 °F37.4 °F71 %30.09 in6.2 miSSE (160°)9.2 mphPartly Cloudy
12:00 PM48.2 °F37.4 °F66 %30.12 in6.2 miSE (140°)3.5 mphPartly Cloudy
12:30 PM51.8 °F37.4 °F58 %30.12 inVariable2.3 mphClear
1:00 PM53.6 °F39.2 °F58 %30.09 inSSW (200°)3.5 mphClear
1:30 PM57.2 °F35.6 °F44 %30.06 inVariable1.2 mphClear
2:00 PM59.0 °F37.4 °F45 %30.06 inWest (260°)4.6 mphClear
2:30 PM60.8 °F21.2 °F22 %30.06 inSSW (210°)3.5 mphClear
3:00 PM60.8 °F21.2 °F22 %30.09 inNorth (10°)13.8 mphClear
3:30 PM60.8 °F21.2 °F22 %30.09 inNNE (20°)10.4 mphClear
4:00 PM59.0 °F23.0 °F25 %30.09 inSouth (180°)2.3 mphClear
4:30 PM53.6 °F35.6 °F51 %30.09 inSSE (160°)5.8 mphClear
5:00 PM50.0 °F35.6 °F58 %30.09 inSouth (180°)4.6 mphClear
5:30 PM46.4 °F35.6 °F66 %30.09 inWest (260°)4.6 mphClear
6:00 PM46.4 °F33.8 °F62 %30.09 inVariable2.3 mphClear
6:30 PM44.6 °F33.8 °F66 %30.12 inNNE (30°)3.5 mphClear
7:00 PM42.8 °F33.8 °F70 %30.12 inVariable1.2 mphClear
7:30 PM42.8 °F33.8 °F70 %30.12 inWSW (250°)3.5 mphClear
8:00 PM39.2 °F32.0 °F75 %30.15 inVariable2.3 mphClear
8:30 PM41.0 °F33.8 °F76 %30.12 inEast (80°)3.5 mphClear
9:00 PM39.2 °F32.0 °F75 %30.12 inVariable2.3 mphClear
9:30 PM39.2 °F32.0 °F75 %30.15 inWNW (300°)2.3 mphClear
10:00 PM37.4 °F32.0 °F81 %30.15 inVariable2.3 mphClear
10:30 PM39.2 °F32.0 °F75 %30.12 inVariable2.3 mphClear
11:00 PM37.4 °F32.0 °F81 %30.12 inNW (310°)3.5 mphClear
11:30 PM35.6 °F30.2 °F81 %30.12 inNorth (360°)4.6 mphClear
Hourly data recorded from LYPG, located miles away from Podgorica, Montenegro







STORIES FROM OUR PARTNERS